Wind_Speed
8 10 11 12 13 12 13 13 13 14 14 14 15 15 14 14 14 14 13 13 13 12 12 11 11 11 10 8 7 6 5 4 4 4 4 4 4 4 4 5 5 6 6 7
8 9 11 12 12 12 13 12 12 14 13 13 14 14 14 15 15 15 15 14 13 13 12 11 11 11 10 9 8 7 5 4 5 4 4 4 4 5 5 5 5 6 7 7
7 8 8 9 11 11 13 12 11 12 12 12 13 13 13 14 14 14 14 13 12 12 12 12 12 11 10 9 8 7 6 5 5 5 4 4 5 5 5 5 6 6 7 7
6 7 8 9 10 11 11 11 11 11 11 11 11 11 13 14 14 13 13 13 12 12 12 12 12 11 11 10 9 8 7 6 6 5 5 5 6 6 6 6 7 7 7 8
6 6 7 8 9 10 11 11 10 10 10 10 10 10 11 12 13 12 12 12 12 12 12 12 12 12 11 10 9 8 8 7 6 6 7 7 7 7 7 7 7 8 8 8
5 5 6 7 8 8 10 10 9 9 9 9 9 9 10 10 10 11 11 12 12 12 12 13 13 12 12 10 9 9 8 8 8 8 8 8 8 8 8 8 8 8 8 9
3 4 5 6 7 8 9 8 7 7 7 7 7 10 10 9 9 10 11 12 12 12 13 13 12 12 12 11 10 9 9 9 9 9 9 9 9 8 8 8 9 9 9 9
2 2 4 6 7 7 7 7 7 6 5 6 8 11 10 9 9 10 11 12 12 13 13 13 13 12 12 11 11 10 10 9 9 10 10 10 10 9 10 10 10 10 10 11
1 2 3 4 5 6 7 7 7 7 6 7 8 9 10 9 9 9 10 11 12 13 14 14 13 13 13 12 11 11 11 11 11 11 11 10 11 11 11 12 12 12 12 12
3 3 4 4 5 6 7 7 8 8 8 7 7 8 9 9 9 9 10 11 12 12 13 13 13 13 12 12 12 12 12 12 12 11 11 11 11 11 11 13 13 13 14 13
3 3 4 4 5 6 7 7 8 9 9 8 8 9 10 8 9 9 10 11 12 13 13 12 12 12 12 12 12 11 12 12 12 12 12 12 12 13 13 13 14 14 15 15
6 4 4 4 4 6 7 8 9 9 9 9 9 9 10 9 9 10 10 11 12 13 12 12 12 12 12 12 12 12 12 11 11 12 12 13 13 14 14 15 15 16 16 16
7 6 5 5 5 5 7 8 9 9 10 9 10 9 11 11 10 10 10 10 11 12 12 12 11 12 12 12 12 12 12 11 12 13 13 14 14 15 16 16 17 17 17 17
8 7 8 7 7 7 7 8 9 10 10 11 11 10 11 11 12 11 11 11 11 11 11 11 12 12 12 12 13 13 13 13 13 14 15 15 15 16 17 17 17 17 17 18
8 7 8 8 8 7 8 9 10 11 10 10 10 11 11 12 12 12 12 13 13 13 12 13 13 13 13 14 14 14 14 14 14 15 15 15 15 15 16 17 17 18 18 19
8 7 7 7 8 8 9 10 11 12 12 10 11 11 11 11 12 12 13 14 13 13 13 14 14 14 15 15 15 14 14 15 15 15 16 16 16 17 17 17 18 19 19 19
10 9 8 8 8 9 10 10 11 11 12 13 13 13 12 13 12 13 13 13 13 13 13 14 14 15 15 16 15 15 16 16 16 17 17 17 18 18 19 19 20 20 20 21
11 11 11 10 10 11 10 10 11 12 12 12 13 13 12 12 13 13 13 12 13 13 14 14 15 15 16 16 16 17 17 18 18 18 18 18 19 20 20 20 21 21 21 21
13 12 12 12 12 13 12 11 11 12 12 12 13 13 13 13 14 14 13 13 13 14 14 15 16 17 17 17 18 18 18 19 20 20 19 20 20 21 21 21 22 22 22 22
15 14 14 14 14 15 15 13 13 13 13 13 14 15 15 15 15 15 15 15 16 16 17 18 18 19 19 19 19 19 19 19 20 20 21 21 21 22 22 22 23 23 23 23
17 16 16 16 16 17 16 16 15 15 15 15 15 16 16 17 17 17 18 18 18 18 19 20 20 20 20 20 20 21 21 21 21 21 21 22 22 22 23 23 24 24 24 25
19 19 19 18 18 20 18 18 18 17 16 17 18 18 17 18 19 19 19 19 19 20 20 20 21 21 21 21 21 22 22 22 22 22 23 23 23 24 24 25 25 25 25 26
22 21 21 21 21 21 21 20 20 19 18 18 19 20 20 20 20 20 20 20 21 21 21 21 21 22 22 22 22 23 23 24 24 25 25 25 25 26 26 26 26 27 27 27
24 23 23 23 23 23 23 22 22 21 21 21 21 21 21 21 21 21 21 21 22 22 22 23 23 22 23 23 24 25 25 26 26 27 27 27 27 27 27 28 28 29 29 30
25 25 25 25 25 25 24 23 23 23 22 22 22 22 22 22 22 22 23 23 23 23 23 23 24 24 24 25 25 26 26 27 27 28 28 29 29 29 29 30 30 31 32 33
27 27 27 26 26 27 26 25 24 25 24 24 23 24 23 23 23 23 23 23 23 23 24 25 25 25 26 26 27 27 28 28 28 29 30 30 31 31 31 31 32 32 33 34
Wind_Direction
207 203 204 208 211 214 219 223 225 225 225 224 227 228 226 220 220 224 228 231 233 230 229 229 229 228 230 229 234 241 244 246 252 264 273 282 291 301 310 315 322 334 345 349
202 202 206 211 214 217 222 223 221 227 228 228 227 229 227 228 230 229 230 232 236 239 233 230 231 229 227 227 231 237 238 249 255 261 269 278 289 299 303 311 318 325 334 339
207 204 206 210 215 219 221 223 218 224 232 231 225 227 230 230 232 232 233 235 237 236 230 229 229 224 223 227 230 234 240 250 256 259 265 275 285 292 300 307 311 317 324 328
205 200 205 211 218 220 215 214 213 222 228 225 226 233 235 235 233 233 234 235 232 232 230 226 223 221 221 225 231 236 244 250 254 257 266 274 282 289 295 301 306 312 317 322
203 204 209 213 215 213 212 209 211 219 223 223 227 236 235 235 233 233 233 231 230 232 231 227 223 222 224 227 232 240 245 247 252 260 263 270 276 283 291 299 304 309 313 316
211 217 216 216 212 204 202 203 206 216 224 225 223 235 239 229 233 239 236 232 232 230 230 228 228 227 229 231 235 242 248 250 254 259 263 266 273 281 287 294 302 305 309 312
212 223 211 200 194 191 189 193 199 210 220 226 226 236 242 237 236 239 238 236 233 232 230 230 230 230 232 234 237 243 251 255 258 255 260 265 273 279 285 291 296 300 302 305
210 203 190 183 180 173 180 186 195 205 214 227 229 234 239 242 240 242 239 237 235 233 234 232 231 231 233 237 241 248 254 257 256 255 260 267 270 277 285 290 292 295 297 299
210 212 200 191 191 189 190 197 195 202 217 228 233 241 241 240 241 243 242 240 237 237 237 236 235 235 239 242 247 253 257 259 257 259 263 271 270 275 284 287 288 291 293 294
224 238 223 208 204 206 205 202 193 194 207 215 227 243 244 242 241 241 246 245 240 241 241 237 238 240 242 247 253 256 259 261 257 259 265 271 274 278 281 284 287 288 288 289
208 221 229 222 215 212 208 210 211 211 212 219 215 225 244 248 250 250 249 246 244 241 242 240 239 241 245 250 253 257 259 258 257 261 266 270 275 278 281 285 287 287 287 287
205 210 230 235 221 227 223 215 214 211 213 222 230 237 245 245 250 253 252 249 246 244 242 243 244 247 247 250 254 258 260 260 262 264 268 271 274 278 281 283 285 286 286 286
208 204 218 233 234 229 232 231 229 224 220 224 231 236 251 253 254 253 254 247 243 242 244 245 246 248 250 253 257 259 261 259 266 268 269 272 276 279 281 282 284 284 285 285
225 221 219 229 233 234 233 233 234 236 230 234 238 242 248 254 255 254 256 249 245 245 246 248 247 247 252 257 260 262 262 262 267 272 272 273 276 279 281 282 284 285 284 284
233 231 232 231 238 250 247 239 237 243 246 250 240 244 253 259 257 254 255 251 248 247 248 251 250 250 255 260 262 264 265 266 270 272 274 277 280 283 284 284 285 286 285 283
239 241 244 239 243 254 256 251 248 249 253 254 254 253 259 265 265 259 256 253 251 249 252 253 253 256 261 264 265 267 268 268 270 272 275 277 280 283 285 286 286 287 288 286
242 239 241 246 253 262 261 260 258 256 255 254 257 260 263 262 263 259 256 253 252 253 256 256 255 261 265 267 267 268 269 270 271 273 275 278 279 282 284 285 287 287 287 286
245 242 244 250 251 255 263 263 263 260 257 257 259 262 261 262 263 262 261 256 253 255 259 261 261 262 266 268 268 269 270 271 272 273 276 278 280 283 285 286 286 286 287 286
246 246 247 249 253 257 261 261 261 263 263 261 263 265 264 261 263 264 264 260 258 261 263 264 266 268 270 269 270 271 272 271 272 274 277 279 281 283 284 285 285 286 287 287
246 248 250 251 254 256 260 258 261 264 263 263 264 265 266 263 263 265 265 264 264 265 267 267 268 270 272 271 271 273 273 273 273 275 278 279 280 281 282 283 284 285 285 287
250 250 252 253 254 257 261 264 266 264 265 267 268 269 268 265 264 266 268 269 268 267 267 267 268 271 272 272 272 272 274 275 276 278 279 280 280 281 282 283 285 285 285 286
251 254 256 259 256 257 264 266 265 266 266 268 269 269 271 266 264 265 267 267 267 267 269 270 270 271 271 271 271 272 273 275 276 278 280 280 280 281 283 283 284 285 285 286
251 254 258 261 262 265 267 267 266 266 267 267 267 268 269 269 267 266 267 267 268 269 270 271 271 271 271 270 271 272 273 275 276 278 279 280 281 282 283 283 283 284 285 285
252 254 257 259 261 265 266 266 265 266 268 268 268 269 271 271 269 268 269 270 270 271 271 272 272 272 272 271 273 274 274 275 277 279 281 282 282 283 283 283 284 284 284 285
253 254 255 258 260 262 265 267 268 269 269 268 268 270 271 272 271 270 270 270 272 273 273 273 272 272 272 274 275 277 278 278 279 280 281 282 283 283 283 283 284 284 284 285
253 255 258 259 261 264 265 267 267 268 267 268 269 269 270 271 271 271 271 272 273 275 275 275 275 275 276 276 277 279 280 281 281 281 282 282 283 283 284 284 284 285 285 286
Height
5835 5838 5839 5841 5843 5846 5847 5850 5852 5855 5857 5859 5861 5863 5865 5867 5869 5872 5874 5876 5878 5880 5882 5884 5885 5887 5888 5889 5890 5891 5892 5893 5893 5894 5894 5894 5895 5895 5895 5894 5894 5893 5892 5891
5835 5836 5838 5840 5842 5844 5846 5849 5851 5853 5855 5858 5859 5861 5864 5866 5868 5870 5872 5874 5876 5878 5880 5882 5883 5885 5886 5888 5889 5890 5891 5892 5892 5893 5893 5893 5894 5894 5894 5893 5893 5892 5891 5890
5835 5837 5838 5840 5842 5844 5846 5848 5850 5852 5854 5856 5859 5860 5862 5864 5866 5868 5870 5872 5874 5875 5877 5880 5882 5883 5885 5886 5888 5889 5890 5890 5891 5891 5892 5892 5893 5893 5893 5893 5892 5891 5890 5890
5835 5836 5838 5839 5841 5843 5845 5847 5849 5851 5854 5855 5858 5859 5861 5862 5864 5866 5868 5870 5872 5873 5875 5877 5879 5881 5883 5884 5886 5887 5888 5889 5889 5890 5891 5891 5892 5892 5892 5892 5891 5890 5889 5889
5836 5837 5838 5839 5841 5842 5844 5847 5849 5851 5852 5855 5857 5858 5860 5861 5863 5865 5866 5868 5870 5871 5873 5875 5877 5879 5881 5883 5884 5885 5886 5887 5888 5889 5889 5890 5890 5890 5890 5890 5889 5889 5888 5888
5836 5837 5838 5839 5840 5842 5844 5847 5848 5850 5851 5854 5856 5857 5858 5859 5861 5863 5865 5866 5868 5870 5872 5873 5875 5877 5879 5881 5882 5883 5884 5885 5886 5886 5887 5888 5888 5889 5888 5888 5888 5887 5887 5886
5836 5837 5838 5839 5840 5842 5844 5847 5848 5849 5851 5853 5854 5855 5857 5858 5860 5861 5863 5865 5867 5868 5870 5872 5873 5875 5877 5879 5880 5881 5882 5883 5884 5884 5885 5886 5886 5887 5886 5886 5886 5886 5885 5885
5837 5838 5839 5839 5841 5842 5844 5846 5848 5850 5851 5852 5853 5854 5856 5857 5859 5860 5861 5863 5865 5867 5868 5869 5871 5873 5875 5876 5878 5879 5880 5881 5882 5882 5883 5884 5884 5884 5884 5884 5884 5884 5883 5882
5838 5839 5839 5840 5841 5842 5843 5845 5847 5848 5850 5852 5852 5853 5855 5856 5857 5859 5860 5861 5863 5864 5866 5867 5869 5871 5873 5874 5875 5876 5877 5878 5879 5880 5881 5881 5881 5882 5882 5882 5881 5881 5880 5880
5838 5839 5840 5840 5841 5842 5844 5845 5846 5848 5849 5850 5852 5852 5854 5854 5856 5857 5858 5859 5861 5862 5863 5865 5867 5869 5870 5871 5873 5874 5875 5875 5876 5877 5878 5878 5879 5879 5879 5879 5878 5878 5877 5877
5838 5839 5840 5840 5841 5842 5844 5845 5845 5847 5848 5849 5850 5853 5852 5853 5854 5855 5856 5858 5859 5860 5861 5863 5864 5866 5867 5869 5870 5871 5872 5872 5873 5874 5875 5875 5876 5876 5876 5875 5875 5874 5874 5874
5837 5838 5839 5840 5841 5842 5842 5843 5844 5846 5847 5848 5849 5853 5850 5851 5852 5853 5854 5855 5856 5857 5859 5861 5862 5864 5865 5866 5867 5868 5869 5869 5870 5871 5872 5872 5872 5872 5872 5872 5871 5871 5870 5870
5836 5837 5839 5839 5842 5842 5842 5843 5843 5844 5845 5846 5847 5851 5849 5849 5850 5851 5852 5853 5854 5855 5857 5858 5860 5861 5862 5863 5864 5865 5865 5866 5867 5868 5868 5868 5868 5868 5868 5868 5867 5867 5866 5866
5835 5836 5838 5839 5839 5839 5840 5841 5842 5843 5843 5844 5845 5846 5847 5848 5848 5850 5850 5851 5852 5853 5855 5856 5857 5858 5859 5860 5861 5861 5862 5863 5863 5864 5864 5864 5864 5864 5864 5864 5863 5863 5862 5862
5834 5835 5836 5836 5837 5838 5838 5839 5840 5841 5842 5842 5843 5844 5845 5846 5846 5847 5848 5849 5850 5851 5852 5853 5854 5855 5856 5857 5857 5858 5858 5859 5860 5860 5860 5860 5860 5860 5860 5859 5859 5858 5858 5857
5832 5834 5834 5835 5836 5836 5837 5838 5839 5839 5840 5841 5842 5842 5843 5843 5844 5844 5845 5846 5847 5848 5849 5850 5851 5852 5852 5853 5854 5854 5855 5855 5856 5856 5856 5856 5856 5856 5855 5855 5854 5854 5853 5852
5830 5832 5833 5833 5834 5834 5836 5836 5837 5837 5838 5839 5839 5840 5840 5841 5841 5842 5842 5843 5844 5845 5846 5847 5848 5848 5849 5849 5850 5850 5851 5851 5851 5851 5851 5851 5851 5851 5850 5850 5849 5849 5848 5847
5828 5829 5830 5831 5832 5833 5835 5834 5834 5835 5835 5836 5836 5837 5837 5838 5838 5838 5839 5840 5841 5842 5843 5843 5844 5845 5845 5845 5845 5846 5846 5846 5847 5847 5846 5846 5846 5846 5845 5845 5844 5843 5842 5842
5825 5826 5827 5828 5828 5829 5831 5831 5831 5832 5833 5833 5833 5833 5834 5834 5835 5835 5836 5837 5837 5838 5839 5840 5840 5840 5841 5841 5841 5841 5841 5841 5842 5842 5841 5841 5841 5840 5840 5839 5839 5838 5837 5836
5821 5823 5824 5825 5826 5826 5828 5828 5828 5830 5829 5830 5830 5830 5830 5831 5832 5832 5832 5833 5834 5834 5835 5835 5836 5836 5836 5836 5836 5836 5836 5836 5836 5836 5836 5835 5835 5835 5834 5833 5833 5832 5831 5830
5817 5818 5820 5821 5822 5822 5823 5824 5825 5827 5827 5826 5826 5826 5826 5827 5828 5828 5828 5829 5829 5830 5830 5831 5831 5831 5831 5831 5831 5831 5831 5831 5831 5830 5830 5829 5829 5828 5828 5827 5826 5825 5824 5823
5812 5814 5815 5816 5817 5820 5819 5820 5821 5822 5821 5821 5822 5822 5822 5822 5822 5823 5824 5824 5825 5825 5825 5825 5825 5826 5826 5825 5826 5826 5825 5825 5825 5824 5824 5823 5823 5822 5821 5820 5819 5818 5817 5816
5807 5809 5810 5812 5814 5814 5814 5815 5815 5816 5816 5817 5817 5817 5817 5818 5818 5818 5819 5819 5819 5819 5819 5820 5820 5820 5820 5820 5819 5819 5819 5818 5818 5817 5817 5816 5816 5815 5814 5814 5812 5811 5810 5809
5802 5803 5804 5806 5807 5808 5808 5809 5810 5811 5811 5811 5811 5812 5812 5813 5813 5813 5813 5813 5813 5813 5813 5813 5813 5814 5814 5813 5813 5813 5812 5812 5811 5811 5810 5809 5809 5808 5807 5806 5805 5804 5802 5801
5795 5797 5798 5799 5801 5801 5802 5803 5804 5805 5805 5805 5806 5806 5807 5807 5807 5807 5807 5807 5807 5807 5807 5807 5807 5807 5807 5806 5806 5805 5805 5804 5804 5803 5802 5801 5801 5800 5799 5798 5796 5795 5794 5792
5788 5790 5791 5793 5794 5795 5796 5796 5797 5798 5798 5799 5800 5800 5800 5800 5801 5801 5801 5801 5801 5801 5800 5800 5800 5800 5799 5799 5799 5798 5797 5796 5796 5795 5794 5793 5792 5791 5790 5789 5787 5785 5784 5782